This is the latest recevied weather packets stored in our database for station/object WE8L. If no packets are shown the sender has not sent any weather packets the latest 10 day(s).
| Time | Temp. | Humidity | Pressure | Rain* | Wind** | Luminosity | Snow |
|---|---|---|---|---|---|---|---|
| 1777914790 | 21.11° C | 59% | 1010.9 hPa | 0 mm | - | 128 W/m² | - |
| 1777914487 | 20.56° C | 58% | 1010.6 hPa | 0 mm | - | 196 W/m² | - |
| 1777914184 | 20.56° C | 61% | 1010.5 hPa | 0 mm | - | 119 W/m² | - |
| 1777913880 | 20° C | 61% | 1010.8 hPa | 0 mm | - | 134 W/m² | - |
| 1777913577 | 20° C | 60% | 1010.7 hPa | 0 mm | - | 107 W/m² | - |
| 1777913273 | 20° C | 61% | 1010.8 hPa | 0 mm | - | 114 W/m² | - |
| 1777912970 | 20° C | 60% | 1011 hPa | 0 mm | - | 124 W/m² | - |
| 1777912666 | 19.44° C | 61% | 1011 hPa | 0 mm | - | 115 W/m² | - |
| 1777912362 | 18.89° C | 62% | 1010.8 hPa | 0 mm | - | 115 W/m² | - |
| 1777912059 | 18.89° C | 62% | 1011 hPa | 0 mm | - | 75 W/m² | - |
| 1777911755 | 18.89° C | 63% | 1011 hPa | 0 mm | - | 68 W/m² | - |
| 1777911452 | 18.89° C | 63% | 1011.3 hPa | 0 mm | - | 77 W/m² | - |
| 1777911148 | 18.89° C | 62% | 1011.5 hPa | 0 mm | - | 79 W/m² | - |
| 1777910846 | 18.89° C | 61% | 1011.2 hPa | 0 mm | - | 92 W/m² | - |
| 1777910542 | 18.89° C | 63% | 1011.4 hPa | 0 mm | - | 130 W/m² | - |
| 1777910240 | 18.89° C | 61% | 1011.3 hPa | 0 mm | - | 118 W/m² | - |
| 1777909937 | 18.89° C | 61% | 1011.4 hPa | 0 mm | - | 110 W/m² | - |
| 1777909633 | 18.33° C | 61% | 1011.3 hPa | 0 mm | - | 107 W/m² | - |
| 1777909331 | 18.33° C | 61% | 1011.2 hPa | 0 mm | - | 112 W/m² | - |
| 1777909028 | 18.33° C | 62% | 1011.4 hPa | 0 mm | - | 111 W/m² | - |
| 1777908726 | 18.33° C | 63% | 1011.4 hPa | 0 mm | - | 117 W/m² | - |
| 1777908423 | 18.33° C | 63% | 1011.5 hPa | 0 mm | - | 124 W/m² | - |
| 1777908120 | 18.33° C | 62% | 1011.6 hPa | 0 mm | - | 135 W/m² | - |
| 1777907816 | 18.33° C | 62% | 1011.6 hPa | 0 mm | - | 138 W/m² | - |
| 1777907516 | 17.78° C | 63% | 1011.7 hPa | 0 mm | - | 136 W/m² | - |
* Rain latest hour (hover to see other rain measurements)
** Current wind speed in m/s (hover to see current wind gust speed)